Hurlburt Field, FL

2:14 AM CST on February 14, 2016 (GMT -0600)
Hurlburt

Weather History for KHRT - January, 2013

Change the Weather History Date:

Wednesday, January 9, 2013

  Actual Average Record
Temperature  
Mean Temperature 65 °F -  
Max Temperature 68 °F 59 °F 75 °F (2000)
Min Temperature 62 °F 40 °F 29 °F (2015)
Growing Degree Days 15 (Base 50)    
Moisture  
Dew Point 65 °F    
Average Humidity 99    
Maximum Humidity 100    
Minimum Humidity 93    
Precipitation  
Precipitation 0.00 in - - ()
Sea Level Pressure  
Sea Level Pressure 30.23 in    
Wind  
Wind Speed 10 mph (East)    
Max Wind Speed 16 mph    
Max Gust Speed 18 mph    
Visibility 7 miles    
Events Rain    
Averages and records for this station are not official NWS values.
T = Trace of Precipitation, MM = Missing Value Source: NWS Daily Summary

Daily Weather History Graph

Daily Weather History Graph

Search for Another Location

Airport or City:

Trip Planner

Search our weather history database for the weather conditions in past years. The results will help you decide how hot, cold, wet, or windy it might be!

Date:

Astronomy

Jan. 09, 2013 Rise Set
Actual Time 6:44 AM CST 5:03 PM CST
Civil Twilight 6:18 AM CST 5:29 PM CST
Nautical Twilight 5:48 AM CST 5:59 PM CST
Astronomical Twilight 5:19 AM CST 6:28 PM CST
Moon 4:23 AM CST (1/9) 3:04 PM CST (1/9)
Length of Visible Light 11h 11m
Length of Day
10h 18m
Waning Crescent, 6% of the Moon is Illuminated
Jan 9
Waning Crescent
Jan 11
New
Jan 18
First Quarter
Jan 26
Full
Feb 3
Last Quarter

Hourly Weather History & Observations

Time (CST) Temp. Dew Point Humidity Pressure Visibility Wind Dir Wind Speed Gust Speed Precip Events Conditions
12:43 AM 62.6 °F 60.8 °F 94% 30.19 in 10.0 mi East 11.5 mph - N/A   Overcast
12:44 AM 62.6 °F 60.8 °F 94% 30.19 in 10.0 mi East 11.5 mph - N/A   Overcast
12:55 AM 63.5 °F 61.5 °F 93% 30.20 in 10.0 mi East 9.2 mph - N/A   Overcast
1:55 AM 63.5 °F 62.4 °F 96% 30.19 in 10.0 mi East 10.4 mph - N/A   Mostly Cloudy
1:56 AM 62.6 °F 62.6 °F 100% 30.19 in 10.0 mi East 10.4 mph - N/A   Mostly Cloudy
1:58 AM 62.6 °F 62.6 °F 100% 30.19 in 10.0 mi East 11.5 mph - N/A   Overcast
2:00 AM 62.6 °F 62.6 °F 100% 30.18 in 10.0 mi East 13.8 mph - N/A   Overcast
2:55 AM 63.3 °F 62.6 °F 97% 30.19 in 10.0 mi East 10.4 mph - N/A   Overcast
3:55 AM 63.1 °F 63.1 °F 100% 30.19 in 10.0 mi ENE 8.1 mph - N/A   Overcast
4:06 AM 62.6 °F 62.6 °F 100% 30.20 in 10.0 mi ENE 6.9 mph - N/A   Overcast
4:14 AM 62.6 °F 62.6 °F 100% 30.18 in 10.0 mi ENE 8.1 mph - N/A   Overcast
4:55 AM 62.6 °F 62.6 °F 100% 30.20 in 10.0 mi ENE 9.2 mph - N/A   Overcast
5:32 AM 62.6 °F 62.6 °F 100% 30.21 in 10.0 mi East 9.2 mph - N/A   Overcast
5:55 AM 63.5 °F 63.5 °F 100% 30.22 in 10.0 mi ENE 9.2 mph - N/A   Overcast
5:56 AM 62.6 °F 62.6 °F 100% 30.22 in 10.0 mi ENE 9.2 mph - N/A   Overcast
6:53 AM 64.4 °F 64.4 °F 100% 30.24 in 10.0 mi East 10.4 mph - N/A   Overcast
6:55 AM 63.7 °F 63.7 °F 100% 30.24 in 10.0 mi East 10.4 mph - N/A   Overcast
7:55 AM 63.3 °F 63.3 °F 100% 30.25 in 7.0 mi East 12.7 mph - N/A   Overcast
8:10 AM 64.4 °F 64.4 °F 100% 30.26 in 2.0 mi East 12.7 mph 18.4 mph N/A   Overcast
8:53 AM 62.6 °F 62.6 °F 100% 30.27 in 1.5 mi East 12.7 mph - N/A   Overcast
8:55 AM 62.6 °F 62.6 °F 100% 30.26 in 1.5 mi East 12.7 mph - N/A   Overcast
9:44 AM 64.4 °F 64.4 °F 100% 30.27 in 2.0 mi East 12.7 mph - N/A   Overcast
9:55 AM 64.4 °F 64.4 °F 100% 30.26 in 2.0 mi East 10.4 mph - N/A   Overcast
10:13 AM 66.2 °F 66.2 °F 100% 30.27 in 2.0 mi East 16.1 mph - N/A   Overcast
10:56 AM 66.2 °F 66.2 °F 100% 30.25 in 2.0 mi East 15.0 mph - N/A   Overcast
11:57 AM 66.2 °F 66.2 °F 100% 30.22 in 2.0 mi East 11.5 mph - N/A   Overcast
12:56 PM 66.2 °F 66.2 °F 100% 30.22 in 2.5 mi East 9.2 mph - N/A   Overcast
1:24 PM 68.0 °F 68.0 °F 100% 30.21 in 2.5 mi East 9.2 mph - N/A   Overcast
1:56 PM 68.0 °F 68.0 °F 100% 30.22 in 2.5 mi East 10.4 mph - N/A   Overcast
2:10 PM 66.2 °F 66.2 °F 100% 30.21 in 1.5 mi East 8.1 mph - N/A   Light Drizzle
2:25 PM 66.2 °F 66.2 °F 100% 30.21 in 1.5 mi East 9.2 mph - N/A   Light Drizzle
2:56 PM 66.2 °F 66.2 °F 100% 30.20 in 1.5 mi East 9.2 mph - N/A   Overcast
3:55 PM 66.2 °F 66.2 °F 100% 30.22 in 5.0 mi East 10.4 mph - N/A   Overcast
4:55 PM 66.2 °F 66.2 °F 100% 30.22 in 6.0 mi East 8.1 mph - N/A   Overcast
5:55 PM 68.0 °F 68.0 °F 100% 30.25 in 4.0 mi East 8.1 mph - N/A   Overcast
5:57 PM 66.2 °F 66.2 °F 100% 30.23 in 8.0 mi East 6.9 mph - N/A   Overcast
6:57 PM 66.2 °F 66.2 °F 100% 30.23 in 8.0 mi East 6.9 mph - N/A   Overcast
7:57 PM 66.2 °F 66.2 °F 100% 30.26 in 3.0 mi East 8.1 mph - N/A Rain Light Rain
8:58 PM 66.2 °F 66.2 °F 100% 30.26 in 5.0 mi East 8.1 mph - N/A   Overcast
9:56 PM 66.2 °F 66.2 °F 100% 30.26 in 9.0 mi ENE 9.2 mph - N/A   Overcast
10:55 PM 66.2 °F 66.2 °F 100% 30.27 in 10.0 mi East 8.1 mph - N/A   Overcast
11:35 PM 66.2 °F 66.2 °F 100% 30.26 in 10.0 mi East 10.4 mph - N/A   Mostly Cloudy
11:55 PM 66.2 °F 66.2 °F 100% 30.27 in 10.0 mi East 10.4 mph - N/A   Mostly Cloudy